Location: La Brionne
(46.1728°N, 1.7849°E)
Time: 03:10:22
(UTC+00:00)

Cosmos 2219 Rocket - Pass Details

Date: 30 October 2021
Orbit: 827 x 848 km, 71.0° (Epoch: 26 November)

Event Time Altitude Azimuth Distance (km) Brightness Sun altitude
Exits shadow 05:12:05 20° 277° (W) 1,838 3.3 -14.1°
Maximum altitude 05:13:18 22° 259° (W) 1,769 3.3 -13.9°
Drops below altitude 10° 05:17:31 10° 210° (SSW) 2,464 4.4 -13.2°
Sets 05:20:28 0° 196° (SSW) 3,395 5.3 -12.7°
